JE7ZDC Weather Reports


time (UTC)temp
F
wind
direction
speed
knots
gust
knots
rain 1hr
in
rain 24hr
in
rain mn
in
humidity
%
barometer
mb
20260508230035 59 281 2.6 17.4 0.00 0.25 0.01 58 1005.2
20260508224545 58 309 8.7 17.4 0.00 0.25 0.01 60 1004.6
20260508223043 57 229 7.0 14.8 0.00 0.25 0.01 60 1004.6
20260508221528 57 289 6.1 15.6 0.00 0.25 0.01 62 1004.7
20260508220029 57 330 8.7 22.6 0.00 0.25 0.01 59 1005.0
20260508214542 57 254 7.0 20.0 0.01 0.25 0.01 58 1005.2
20260508213020 57 349 4.3 9.6 0.01 0.25 0.01 59 1004.7
20260508211519 56 164 1.7 13.0 0.01 0.25 0.01 58 1004.7
20260508210016 56 57 4.3 40.8 0.01 0.25 0.01 57 1004.4
20260508204518 55 255 1.7 11.3 0.00 0.24 0.00 61 1004.9
20260508203017 54 244 1.7 4.3 0.00 0.24 0.00 61 1004.0
20260508201514 55 65 2.6 7.0 0.00 0.24 0.00 59 1004.2
20260508200019 54 130 4.3 10.4 0.00 0.24 0.00 62 1004.4
20260508194515 54 257 0.0 7.8 0.00 0.24 0.00 63 1004.7
20260508193010 54 287 3.5 10.4 0.00 0.24 0.00 65 1004.6
20260508191508 54 273 1.7 10.4 0.00 0.24 0.00 64 1004.2
20260508190018 54 290 0.0 13.0 0.00 0.24 0.00 62 1004.2
20260508184516 55 289 3.5 18.2 0.00 0.24 0.00 59 1003.9
20260508183009 54 253 2.6 10.4 0.00 0.24 0.00 62 1003.8
20260508181501 54 338 1.7 8.7 0.00 0.24 0.00 61 1003.7
20260508180116 54 287 2.6 16.5 0.00 0.24 0.00 63 1003.8
20260508174613 54 256 2.6 9.6 0.00 0.24 0.00 61 1003.7
20260508173058 54 267 2.6 10.4 0.00 0.24 0.00 57 1003.7
20260508171555 54 1 4.3 16.5 0.00 0.24 0.00 58 1003.5
20260508170055 55 282 2.6 8.7 0.00 0.24 0.00 55 1003.4
20260508164553 55 288 1.7 11.3 0.00 0.24 0.00 54 1003.8
20260508163046 55 275 1.7 14.8 0.00 0.24 0.00 56 1003.8
20260508161545 55 278 2.6 12.2 0.00 0.24 0.00 57 1003.7
20260508160041 55 240 0.0 8.7 0.00 0.24 0.00 59 1003.8
20260508154539 55 307 0.9 7.0 0.00 0.24 0.00 59 1003.5
20260508153044 56 293 3.5 13.9 0.00 0.24 0.00 58 1003.1
20260508151533 56 323 5.2 24.3 0.00 0.24 0.00 57 1003.1
20260508150032 56 256 2.6 9.6 0.00 0.24 0.00 60 1002.8
20260508144530 57 11 1.7 20.9 0.00 0.24 0.24 57 1003.0
20260508143026 57 297 3.5 24.3 0.00 0.24 0.24 60 1003.1
20260508141525 57 285 7.0 29.5 0.00 0.24 0.24 57 1003.3
20260508140023 56 259 7.8 20.0 0.00 0.24 0.24 63 1003.0
20260508134518 57 58 2.6 11.3 0.00 0.24 0.24 68 1002.4
20260508133016 57 264 6.1 19.1 0.00 0.24 0.24 71 1002.9
20260508131515 56 296 5.2 13.0 0.01 0.24 0.24 74 1002.6
20260508130028 56 264 2.6 17.4 0.01 0.24 0.24 77 1002.9
20260508124512 55 306 2.6 15.6 0.01 0.24 0.24 82 1003.2
20260508123015 57 234 0.9 4.3 0.01 0.24 0.24 88 1003.1
20260508121510 58 271 0.0 2.6 0.02 0.24 0.24 86 1003.1
20260508120010 58 258 0.0 1.7 0.02 0.24 0.24 85 1002.7
20260508114509 59 67 0.0 2.6 0.03 0.24 0.24 83 1002.9
20260508113008 59 355 0.0 1.7 0.02 0.23 0.23 83 1002.3
20260508111508 59 136 0.0 0.9 0.01 0.21 0.21 83 1002.8
20260508110006 59 242 0.0 0.9 0.01 0.21 0.21 84 1002.8
20260508104506 59 242 0.0 0.9 0.00 0.20 0.20 84 1002.5
20260508103010 59 257 0.0 1.7 0.00 0.20 0.20 85 1001.9
20260508101505 59 115 0.0 0.9 0.01 0.20 0.20 84 1001.7
20260508100004 60 79 0.0 2.6 0.02 0.20 0.20 84 1001.5
20260508094505 60 294 0.0 0.0 0.02 0.20 0.20 85 1001.4
20260508093006 60 241 0.0 2.6 0.02 0.20 0.20 84 1001.3
20260508091509 60 60 0.9 2.6 0.02 0.20 0.20 84 1000.8
20260508090008 60 68 0.0 0.9 0.08 0.19 0.19 86 1001.1
20260508084502 60 99 0.0 2.6 0.08 0.19 0.19 87 1001.3
20260508083001 61 5 0.0 1.7 0.08 0.19 0.19 87 1001.3
20260508081614 62 74 0.9 3.5 0.07 0.18 0.18 87 1000.9
20260508074600 63 117 0.0 0.0 0.00 0.11 0.11 87 1001.2
20260508073059 63 117 0.0 0.0 0.01 0.11 0.11 87 1001.1
20260508071557 63 117 0.0 0.0 0.06 0.11 0.11 87 1001.2
20260508070157 63 117 0.0 0.0 0.10 0.11 0.11 87 1001.3
20260508064558 63 118 0.0 0.9 0.11 0.11 0.11 87 1001.4
20260508063104 63 86 0.0 0.9 0.10 0.10 0.10 88 1001.5
20260508061555 65 241 0.0 2.6 0.05 0.05 0.05 83 1002.2
20260508060053 71 253 0.0 0.9 0.01 0.01 0.01 69 1001.2
20260508054553 73 142 0.0 0.9 0.00 0.00 0.00 62 1001.3
20260508053103 74 169 0.0 3.5 0.00 0.00 0.00 59 1001.2
20260508051549 75 146 0.0 1.7 0.00 0.00 0.00 59 1001.5
20260508050049 75 90 0.0 1.7 0.00 0.00 0.00 57 1001.8
20260508044545 74 118 0.0 1.7 0.00 0.00 0.00 60 1002.0
20260508043055 74 158 0.0 0.9 0.00 0.00 0.00 63 1002.6
20260508041548 73 19 0.0 0.0 0.00 0.00 0.00 63 1002.9
20260508040040 74 143 0.0 0.9 0.00 0.00 0.00 60 1003.1
20260508034540 75 275 0.0 0.9 0.00 0.00 0.00 60 1003.0
20260508033038 75 270 0.0 0.9 0.00 0.00 0.00 60 1002.8
20260508031536 75 126 0.0 0.9 0.00 0.00 0.00 60 1002.9
20260508030040 74 124 0.0 0.0 0.00 0.00 0.00 60 1003.2
20260508024533 75 101 0.0 0.9 0.00 0.00 0.00 60 1003.9
20260508023030 77 224 0.0 2.6 0.00 0.00 0.00 52 1003.7
20260508021526 76 255 0.0 0.9 0.00 0.00 0.00 53 1003.8
20260508020029 74 264 0.0 0.0 0.00 0.00 0.00 55 1004.0
20260508014522 73 264 0.0 1.7 0.00 0.00 0.00 60 1004.8
20260508013017 74 185 0.0 0.9 0.00 0.00 0.00 61 1005.2
20260508011519 74 283 0.0 1.7 0.00 0.00 0.00 58 1005.6
20260508010017 73 278 0.0 2.6 0.00 0.00 0.00 54 1004.9
20260508004513 73 281 0.0 2.6 0.00 0.00 0.00 60 1005.6
20260508003009 75 328 0.0 0.9 0.00 0.00 0.00 55 1005.7
20260508001519 73 134 0.0 1.7 0.00 0.00 0.00 56 1005.8
20260508000006 74 145 0.0 0.9 0.00 0.00 0.00 61 1006.0
20260507234502 72 228 0.0 0.9 0.00 0.00 0.00 60 1006.0
20260507233058 71 239 0.0 2.6 0.00 0.00 0.00 61 1006.3
20260507231557 70 278 0.0 1.7 0.00 0.00 0.00 64 1006.6